Location: Waco, TX
(31.5480°N, 97.1670°W)
Time: 02:47:40
(UTC-06:00)

ISS - Pass Details

Date: 05 January 2018
Orbit: 401 x 406 km, 51.6° (Epoch: 17 January)

Event Time Altitude Azimuth Distance (km) Brightness Sun altitude
Rises 11:37:41 0° 297° (WNW) 2,324 -0.3 34.2°
Reaches altitude 10° 11:40:12 10° 277° (W) 1,462 -1.1 34.4°
Maximum altitude 11:42:30 18° 233° (SW) 1,081 -1.2 34.5°
Drops below altitude 10° 11:44:47 10° 188° (S) 1,456 0.1 34.6°
Sets 11:47:18 0° 168° (SSE) 2,311 1.1 34.7°
